contact:dominique.lefevre@mio.osupytheas.fr, maurice.libes@osupytheas.fr, didier.mallarino@osupytheas.fr
Project:EMSO http://www.emso-fr.org/EMSO-France
Depth: 2436.0 m
Title:EMSO Ligure Ouest : Data MII capteur MICROCAT
DateTime_Computer,Latitude,Longitude,Temperature,Conductivity,Pressure,DateTime_Instrument
DateTime_Computer,Latitude,Longitude,degC,S m-1,dbar,DateTime_Instrument
2020-09-25T00:00:03Z,42.805,6.029,13.2979,4.59985,2470.11,2020-9-25T02:00:56Z
2020-09-25T00:03:05Z,42.805,6.029,13.2979,4.59984,2470.087,2020-9-25T02:03:58Z
2020-09-25T00:06:07Z,42.805,6.029,13.2985,4.59986,2470.11,2020-9-25T02:06:59Z
2020-09-25T00:09:08Z,42.805,6.029,13.2982,4.59983,2470.147,2020-9-25T02:10:00Z
2020-09-25T00:12:11Z,42.805,6.029,13.2981,4.59984,2470.11,2020-9-25T02:13:04Z
2020-09-25T00:15:15Z,42.805,6.029,13.2983,4.59984,2470.133,2020-9-25T02:16:08Z
2020-09-25T00:18:18Z,42.805,6.029,13.2987,4.59983,2470.124,2020-9-25T02:19:11Z
2020-09-25T00:21:22Z,42.805,6.029,13.2980,4.59983,2470.147,2020-9-25T02:22:14Z
2020-09-25T00:24:27Z,42.805,6.029,13.2982,4.59983,2470.11,2020-9-25T02:25:19Z
2020-09-25T00:27:30Z,42.805,6.029,13.2983,4.59984,2470.087,2020-9-25T02:28:23Z
2020-09-25T00:30:35Z,42.805,6.029,13.2981,4.59983,2470.1,2020-9-25T02:31:27Z
2020-09-25T00:33:37Z,42.805,6.029,13.2979,4.59983,2470.124,2020-9-25T02:34:29Z
2020-09-25T00:36:40Z,42.805,6.029,13.2983,4.59984,2470.133,2020-9-25T02:37:33Z
2020-09-25T00:39:41Z,42.805,6.029,13.2982,4.59983,2470.11,2020-9-25T02:40:34Z
2020-09-25T00:42:45Z,42.805,6.029,13.2984,4.59983,2470.11,2020-9-25T02:43:37Z
2020-09-25T00:45:47Z,42.805,6.029,13.2983,4.59983,2470.11,2020-9-25T02:46:40Z
2020-09-25T00:48:52Z,42.805,6.029,13.2981,4.59984,2470.124,2020-9-25T02:49:44Z
2020-09-25T00:51:55Z,42.805,6.029,13.2979,4.59984,2470.11,2020-9-25T02:52:47Z
2020-09-25T00:54:58Z,42.805,6.029,13.2982,4.59984,2470.133,2020-9-25T02:55:51Z
2020-09-25T00:58:03Z,42.805,6.029,13.2979,4.59983,2470.11,2020-9-25T02:58:55Z
2020-09-25T01:01:06Z,42.805,6.029,13.2981,4.59984,2470.11,2020-9-25T03:01:58Z
2020-09-25T01:04:09Z,42.805,6.029,13.2981,4.59984,2470.124,2020-9-25T03:05:02Z
2020-09-25T01:07:11Z,42.805,6.029,13.2986,4.59983,2470.087,2020-9-25T03:08:04Z
2020-09-25T01:10:16Z,42.805,6.029,13.2982,4.59983,2470.087,2020-9-25T03:11:09Z
2020-09-25T01:13:20Z,42.805,6.029,13.2982,4.59983,2470.124,2020-9-25T03:14:13Z
2020-09-25T01:16:23Z,42.805,6.029,13.2982,4.59983,2470.11,2020-9-25T03:17:15Z
2020-09-25T01:19:24Z,42.805,6.029,13.2986,4.59983,2470.124,2020-9-25T03:20:17Z
2020-09-25T01:22:26Z,42.805,6.029,13.2984,4.59985,2470.1,2020-9-25T03:23:18Z
2020-09-25T01:25:29Z,42.805,6.029,13.2980,4.59983,2470.11,2020-9-25T03:26:21Z
2020-09-25T01:28:32Z,42.805,6.029,13.2983,4.59984,2470.133,2020-9-25T03:29:25Z
2020-09-25T01:31:35Z,42.805,6.029,13.2982,4.59983,2470.133,2020-9-25T03:32:28Z
2020-09-25T01:34:38Z,42.805,6.029,13.2978,4.59983,2470.124,2020-9-25T03:35:31Z
2020-09-25T01:37:40Z,42.805,6.029,13.2979,4.59984,2470.11,2020-9-25T03:38:32Z
2020-09-25T01:40:45Z,42.805,6.029,13.2982,4.59986,2470.087,2020-9-25T03:41:37Z
2020-09-25T01:43:46Z,42.805,6.029,13.2979,4.59983,2470.124,2020-9-25T03:44:38Z
2020-09-25T01:46:47Z,42.805,6.029,13.2983,4.59983,2470.11,2020-9-25T03:47:39Z
2020-09-25T01:49:50Z,42.805,6.029,13.2982,4.59983,2470.096,2020-9-25T03:50:43Z
2020-09-25T01:52:55Z,42.805,6.029,13.2980,4.59984,2470.11,2020-9-25T03:53:47Z
2020-09-25T01:55:59Z,42.805,6.029,13.2983,4.59983,2470.087,2020-9-25T03:56:51Z
2020-09-25T01:59:02Z,42.805,6.029,13.2981,4.59983,2470.124,2020-9-25T03:59:54Z
2020-09-25T02:02:05Z,42.805,6.029,13.2985,4.59984,2470.1,2020-9-25T04:02:58Z
2020-09-25T02:05:08Z,42.805,6.029,13.2983,4.59985,2470.11,2020-9-25T04:06:01Z
2020-09-25T02:08:12Z,42.805,6.029,13.2984,4.59984,2470.11,2020-9-25T04:09:04Z
2020-09-25T02:11:15Z,42.805,6.029,13.2982,4.59983,2470.11,2020-9-25T04:12:08Z
2020-09-25T02:14:19Z,42.805,6.029,13.2981,4.59983,2470.1,2020-9-25T04:15:11Z
2020-09-25T02:17:23Z,42.805,6.029,13.2980,4.59984,2470.087,2020-9-25T04:18:15Z
2020-09-25T02:20:26Z,42.805,6.029,13.2982,4.59984,2470.1,2020-9-25T04:21:19Z
2020-09-25T02:23:28Z,42.805,6.029,13.2984,4.59983,2470.11,2020-9-25T04:24:20Z
2020-09-25T02:26:32Z,42.805,6.029,13.2983,4.59983,2470.11,2020-9-25T04:27:25Z
2020-09-25T02:29:34Z,42.805,6.029,13.2983,4.59987,2470.124,2020-9-25T04:30:27Z
2020-09-25T02:32:38Z,42.805,6.029,13.2982,4.59983,2470.087,2020-9-25T04:33:31Z
2020-09-25T02:35:41Z,42.805,6.029,13.2984,4.59983,2470.087,2020-9-25T04:36:34Z
2020-09-25T02:38:43Z,42.805,6.029,13.2981,4.59984,2470.063,2020-9-25T04:39:35Z
2020-09-25T02:41:48Z,42.805,6.029,13.2982,4.59983,2470.087,2020-9-25T04:42:40Z
2020-09-25T02:44:49Z,42.805,6.029,13.2982,4.59983,2470.11,2020-9-25T04:45:42Z
2020-09-25T02:47:50Z,42.805,6.029,13.2982,4.59983,2470.1,2020-9-25T04:48:43Z
2020-09-25T02:50:54Z,42.805,6.029,13.2984,4.59983,2470.1,2020-9-25T04:51:46Z
2020-09-25T02:53:57Z,42.805,6.029,13.2982,4.59983,2470.1,2020-9-25T04:54:50Z
2020-09-25T02:57:00Z,42.805,6.029,13.2976,4.59983,2470.1,2020-9-25T04:57:53Z
2020-09-25T03:00:02Z,42.805,6.029,13.2980,4.59984,2470.1,2020-9-25T05:00:54Z
2020-09-25T03:03:04Z,42.805,6.029,13.2979,4.59984,2470.11,2020-9-25T05:03:57Z
2020-09-25T03:06:06Z,42.805,6.029,13.2982,4.59984,2470.11,2020-9-25T05:06:58Z
2020-09-25T03:09:11Z,42.805,6.029,13.2980,4.59984,2470.1,2020-9-25T05:10:03Z
2020-09-25T03:12:15Z,42.805,6.029,13.2982,4.59986,2470.063,2020-9-25T05:13:07Z
2020-09-25T03:15:19Z,42.805,6.029,13.2983,4.59984,2470.087,2020-9-25T05:16:12Z
2020-09-25T03:18:21Z,42.805,6.029,13.2982,4.59985,2470.087,2020-9-25T05:19:14Z
2020-09-25T03:21:25Z,42.805,6.029,13.2983,4.59986,2470.087,2020-9-25T05:22:18Z
2020-09-25T03:24:31Z,42.805,6.029,13.2983,4.59984,2470.1,2020-9-25T05:25:23Z
2020-09-25T03:27:34Z,42.805,6.029,13.2982,4.59986,2470.11,2020-9-25T05:28:26Z
2020-09-25T03:30:39Z,42.805,6.029,13.2984,4.59984,2470.077,2020-9-25T05:31:31Z
2020-09-25T03:33:42Z,42.805,6.029,13.2982,4.59984,2470.077,2020-9-25T05:34:35Z
2020-09-25T03:36:44Z,42.805,6.029,13.2982,4.59986,2470.1,2020-9-25T05:37:36Z
2020-09-25T03:39:48Z,42.805,6.029,13.2982,4.59985,2470.077,2020-9-25T05:40:40Z
2020-09-25T03:42:50Z,42.805,6.029,13.2982,4.59983,2470.11,2020-9-25T05:43:42Z
2020-09-25T03:45:51Z,42.805,6.029,13.2983,4.59985,2470.1,2020-9-25T05:46:44Z
2020-09-25T03:48:52Z,42.805,6.029,13.2982,4.59984,2470.1,2020-9-25T05:49:45Z
2020-09-25T03:51:55Z,42.805,6.029,13.2983,4.59984,2470.1,2020-9-25T05:52:47Z
2020-09-25T03:55:00Z,42.805,6.029,13.2981,4.59984,2470.124,2020-9-25T05:55:52Z
2020-09-25T03:58:03Z,42.805,6.029,13.2983,4.59984,2470.087,2020-9-25T05:58:56Z
2020-09-25T04:01:05Z,42.805,6.029,13.2977,4.59984,2470.087,2020-9-25T06:01:57Z
2020-09-25T04:04:09Z,42.805,6.029,13.2982,4.59984,2470.1,2020-9-25T06:05:02Z
2020-09-25T04:07:11Z,42.805,6.029,13.2982,4.59984,2470.077,2020-9-25T06:08:04Z
2020-09-25T04:10:13Z,42.805,6.029,13.2981,4.59984,2470.087,2020-9-25T06:11:05Z
2020-09-25T04:13:15Z,42.805,6.029,13.2985,4.59984,2470.077,2020-9-25T06:14:08Z
2020-09-25T04:16:16Z,42.805,6.029,13.2983,4.59984,2470.077,2020-9-25T06:17:09Z
2020-09-25T04:19:20Z,42.805,6.029,13.2983,4.59984,2470.063,2020-9-25T06:20:12Z
2020-09-25T04:22:23Z,42.805,6.029,13.2982,4.59984,2470.1,2020-9-25T06:23:16Z
2020-09-25T04:25:27Z,42.805,6.029,13.2983,4.59984,2470.063,2020-9-25T06:26:19Z
2020-09-25T04:28:30Z,42.805,6.029,13.2981,4.59984,2470.1,2020-9-25T06:29:22Z
2020-09-25T04:31:34Z,42.805,6.029,13.2985,4.59985,2470.063,2020-9-25T06:32:26Z
2020-09-25T04:34:36Z,42.805,6.029,13.2979,4.59985,2470.063,2020-9-25T06:35:29Z
2020-09-25T04:37:43Z,42.805,6.029,13.2983,4.59984,2470.1,2020-9-25T06:38:33Z
2020-09-25T04:40:42Z,42.805,6.029,13.2983,4.59985,2470.087,2020-9-25T06:41:34Z
2020-09-25T04:43:47Z,42.805,6.029,13.2984,4.59984,2470.077,2020-9-25T06:44:39Z
2020-09-25T04:46:50Z,42.805,6.029,13.2981,4.59984,2470.087,2020-9-25T06:47:43Z
2020-09-25T04:49:55Z,42.805,6.029,13.2984,4.59986,2470.087,2020-9-25T06:50:47Z
2020-09-25T04:52:59Z,42.805,6.029,13.2983,4.59983,2470.147,2020-9-25T06:53:51Z
2020-09-25T04:56:03Z,42.805,6.029,13.2983,4.59984,2470.1,2020-9-25T06:56:56Z
2020-09-25T04:59:06Z,42.805,6.029,13.2979,4.59983,2470.04,2020-9-25T06:59:58Z
2020-09-25T05:05:11Z,42.805,6.029,13.2981,4.59983,2470.063,2020-9-25T07:06:03Z
2020-09-25T05:08:12Z,42.805,6.029,13.2982,4.59985,2470.1,2020-9-25T07:09:04Z
2020-09-25T05:11:14Z,42.805,6.029,13.2981,4.59984,2470.087,2020-9-25T07:12:06Z
2020-09-25T05:14:15Z,42.805,6.029,13.2983,4.59984,2470.077,2020-9-25T07:15:07Z
2020-09-25T05:17:17Z,42.805,6.029,13.2983,4.59985,2470.04,2020-9-25T07:18:10Z
2020-09-25T05:20:22Z,42.805,6.029,13.2985,4.59985,2470.03,2020-9-25T07:21:15Z
2020-09-25T05:23:25Z,42.805,6.029,13.2983,4.59984,2470.063,2020-9-25T07:24:17Z
2020-09-25T05:26:29Z,42.805,6.029,13.2982,4.59984,2470.077,2020-9-25T07:27:21Z
2020-09-25T05:29:34Z,42.805,6.029,13.2986,4.59984,2470.087,2020-9-25T07:30:26Z
2020-09-25T05:32:37Z,42.805,6.029,13.2982,4.59984,2470.087,2020-9-25T07:33:28Z
2020-09-25T05:35:40Z,42.805,6.029,13.2983,4.59985,2470.063,2020-9-25T07:36:32Z
2020-09-25T05:38:43Z,42.805,6.029,13.2984,4.59985,2470.04,2020-9-25T07:39:35Z
2020-09-25T05:41:47Z,42.805,6.029,13.2983,4.59985,2470.063,2020-9-25T07:42:39Z
2020-09-25T05:44:50Z,42.805,6.029,13.2983,4.59985,2470.077,2020-9-25T07:45:42Z
2020-09-25T05:47:53Z,42.805,6.029,13.2982,4.59986,2470.1,2020-9-25T07:48:46Z
2020-09-25T05:50:57Z,42.805,6.029,13.2983,4.59986,2470.063,2020-9-25T07:51:49Z
2020-09-25T05:54:01Z,42.805,6.029,13.2984,4.59984,2470.077,2020-9-25T07:54:54Z
2020-09-25T05:57:06Z,42.805,6.029,13.2983,4.59991,2470.063,2020-9-25T07:57:58Z
2020-09-25T06:00:09Z,42.805,6.029,13.2986,4.59985,2470.063,2020-9-25T08:01:01Z
2020-09-25T06:03:14Z,42.805,6.029,13.2982,4.59987,2470.04,2020-9-25T08:04:06Z
2020-09-25T06:06:19Z,42.805,6.029,13.2983,4.59985,2470.053,2020-9-25T08:07:11Z
2020-09-25T06:09:22Z,42.805,6.029,13.2979,4.59986,2470.063,2020-9-25T08:10:15Z
2020-09-25T06:12:25Z,42.805,6.029,13.2986,4.59986,2470.063,2020-9-25T08:13:18Z
2020-09-25T06:15:27Z,42.805,6.029,13.2983,4.59985,2470.04,2020-9-25T08:16:20Z
2020-09-25T06:18:30Z,42.805,6.029,13.2981,4.59986,2470.077,2020-9-25T08:19:23Z
2020-09-25T06:21:33Z,42.805,6.029,13.2987,4.59985,2470.063,2020-9-25T08:22:25Z
2020-09-25T06:24:36Z,42.805,6.029,13.2984,4.59986,2470.063,2020-9-25T08:25:28Z
2020-09-25T06:27:40Z,42.805,6.029,13.2983,4.59985,2470.053,2020-9-25T08:28:32Z
2020-09-25T06:30:42Z,42.805,6.029,13.2984,4.59985,2470.04,2020-9-25T08:31:35Z
2020-09-25T06:33:45Z,42.805,6.029,13.2985,4.59985,2470.04,2020-9-25T08:34:37Z
2020-09-25T06:36:49Z,42.805,6.029,13.2982,4.59986,2470.077,2020-9-25T08:37:41Z
2020-09-25T06:39:52Z,42.805,6.029,13.2986,4.59985,2470.017,2020-9-25T08:40:44Z
2020-09-25T06:42:55Z,42.805,6.029,13.2983,4.59986,2470.03,2020-9-25T08:43:48Z
2020-09-25T06:45:59Z,42.805,6.029,13.2983,4.59985,2470.04,2020-9-25T08:46:51Z
2020-09-25T06:49:04Z,42.805,6.029,13.2982,4.59986,2470.04,2020-9-25T08:49:56Z
2020-09-25T06:52:07Z,42.805,6.029,13.2985,4.59987,2470.04,2020-9-25T08:53:00Z
2020-09-25T06:55:11Z,42.805,6.029,13.2982,4.59988,2470.053,2020-9-25T08:56:04Z
2020-09-25T06:58:14Z,42.805,6.029,13.2983,4.59986,2470.03,2020-9-25T08:59:07Z
2020-09-25T07:01:18Z,42.805,6.029,13.2985,4.59985,2470.04,2020-9-25T09:02:10Z
2020-09-25T07:04:22Z,42.805,6.029,13.2985,4.59986,2470.063,2020-9-25T09:05:14Z
2020-09-25T07:07:25Z,42.805,6.029,13.2986,4.59986,2470.04,2020-9-25T09:08:18Z
2020-09-25T07:10:27Z,42.805,6.029,13.2984,4.59987,2470.053,2020-9-25T09:11:19Z
2020-09-25T07:13:28Z,42.805,6.029,13.2983,4.59993,2470.03,2020-9-25T09:14:20Z
2020-09-25T07:16:31Z,42.805,6.029,13.2983,4.59987,2470.04,2020-9-25T09:17:24Z
2020-09-25T07:19:35Z,42.805,6.029,13.2986,4.59988,2470.053,2020-9-25T09:20:27Z
2020-09-25T07:22:39Z,42.805,6.029,13.2983,4.59985,2470.053,2020-9-25T09:23:31Z
2020-09-25T07:25:42Z,42.805,6.029,13.2986,4.59987,2470.03,2020-9-25T09:26:34Z
2020-09-25T07:28:46Z,42.805,6.029,13.2982,4.59985,2470.017,2020-9-25T09:29:38Z
2020-09-25T07:31:51Z,42.805,6.029,13.2984,4.59986,2470.053,2020-9-25T09:32:43Z
2020-09-25T07:34:54Z,42.805,6.029,13.2986,4.59985,2470.04,2020-9-25T09:35:47Z
2020-09-25T07:37:58Z,42.805,6.029,13.2983,4.59985,2470.04,2020-9-25T09:38:50Z
2020-09-25T07:40:59Z,42.805,6.029,13.2984,4.59986,2470.04,2020-9-25T09:41:51Z
2020-09-25T07:44:04Z,42.805,6.029,13.2984,4.59986,2470.017,2020-9-25T09:44:56Z
2020-09-25T07:47:08Z,42.805,6.029,13.2982,4.59988,2470.017,2020-9-25T09:48:01Z
2020-09-25T07:50:11Z,42.805,6.029,13.2986,4.59987,2470.063,2020-9-25T09:51:04Z
2020-09-25T07:53:16Z,42.805,6.029,13.2982,4.59986,2470.053,2020-9-25T09:54:08Z
2020-09-25T07:56:19Z,42.805,6.029,13.2983,4.59986,2470.087,2020-9-25T09:57:12Z
2020-09-25T07:59:24Z,42.805,6.029,13.2987,4.59986,2470.053,2020-9-25T10:00:16Z
2020-09-25T08:02:27Z,42.805,6.029,13.2985,4.59987,2470.017,2020-9-25T10:03:20Z
2020-09-25T08:05:31Z,42.805,6.029,13.2983,4.59989,2470.017,2020-9-25T10:06:23Z
2020-09-25T08:08:36Z,42.805,6.029,13.2982,4.59986,2470.017,2020-9-25T10:09:28Z
2020-09-25T08:11:37Z,42.805,6.029,13.2984,4.59991,2470.017,2020-9-25T10:12:30Z
2020-09-25T08:14:41Z,42.805,6.029,13.2988,4.59986,2470.053,2020-9-25T10:15:33Z
2020-09-25T08:17:45Z,42.805,6.029,13.2984,4.59987,2470.04,2020-9-25T10:18:38Z
2020-09-25T08:20:49Z,42.805,6.029,13.2984,4.59986,2470.017,2020-9-25T10:21:41Z
2020-09-25T08:23:52Z,42.805,6.029,13.2983,4.59985,2470.04,2020-9-25T10:24:44Z
2020-09-25T08:26:56Z,42.805,6.029,13.2983,4.59989,2470.03,2020-9-25T10:27:48Z
2020-09-25T08:30:00Z,42.805,6.029,13.2985,4.59986,2470.017,2020-9-25T10:30:52Z
2020-09-25T08:33:03Z,42.805,6.029,13.2982,4.59984,2470.077,2020-9-25T10:33:56Z
2020-09-25T08:36:06Z,42.805,6.029,13.2986,4.59991,2470.03,2020-9-25T10:36:58Z
2020-09-25T08:39:07Z,42.805,6.029,13.2980,4.59984,2470.007,2020-9-25T10:39:59Z
2020-09-25T08:42:09Z,42.805,6.029,13.2984,4.59983,2470.017,2020-9-25T10:43:02Z
2020-09-25T08:45:14Z,42.805,6.029,13.2984,4.59986,2470.03,2020-9-25T10:46:06Z
2020-09-25T08:48:17Z,42.805,6.029,13.2986,4.59986,2470.017,2020-9-25T10:49:10Z
2020-09-25T08:51:20Z,42.805,6.029,13.2976,4.59984,2470.04,2020-9-25T10:52:12Z
2020-09-25T08:54:23Z,42.805,6.029,13.2982,4.59986,2470.017,2020-9-25T10:55:15Z
2020-09-25T08:57:25Z,42.805,6.029,13.2983,4.59985,2469.993,2020-9-25T10:58:17Z
2020-09-25T09:00:28Z,42.805,6.029,13.2983,4.59983,2469.97,2020-9-25T11:01:21Z
2020-09-25T09:03:32Z,42.805,6.029,13.2979,4.59985,2470.017,2020-9-25T11:04:24Z
2020-09-25T09:06:35Z,42.805,6.029,13.2979,4.59984,2470.017,2020-9-25T11:07:28Z
2020-09-25T09:09:37Z,42.805,6.029,13.2980,4.59984,2470.017,2020-9-25T11:10:29Z
2020-09-25T09:12:40Z,42.805,6.029,13.2983,4.59984,2470.053,2020-9-25T11:13:33Z
2020-09-25T09:15:44Z,42.805,6.029,13.2982,4.59983,2470.017,2020-9-25T11:16:36Z
2020-09-25T09:18:47Z,42.805,6.029,13.2984,4.59984,2469.993,2020-9-25T11:19:39Z
2020-09-25T09:21:50Z,42.805,6.029,13.2982,4.59983,2470.063,2020-9-25T11:22:43Z
2020-09-25T09:24:53Z,42.805,6.029,13.2979,4.59983,2470.04,2020-9-25T11:25:46Z
2020-09-25T09:27:57Z,42.805,6.029,13.2983,4.59984,2470.04,2020-9-25T11:28:49Z
2020-09-25T09:30:58Z,42.805,6.029,13.2982,4.59987,2470.063,2020-9-25T11:31:50Z
2020-09-25T09:34:02Z,42.805,6.029,13.2984,4.59984,2470.04,2020-9-25T11:34:54Z
2020-09-25T09:37:07Z,42.805,6.029,13.2980,4.59983,2470.03,2020-9-25T11:37:59Z
2020-09-25T09:40:09Z,42.805,6.029,13.2984,4.59984,2470.063,2020-9-25T11:41:01Z
2020-09-25T09:43:10Z,42.805,6.029,13.2979,4.59983,2470.063,2020-9-25T11:44:03Z
2020-09-25T09:46:14Z,42.805,6.029,13.2983,4.59985,2470.077,2020-9-25T11:47:07Z
2020-09-25T09:49:16Z,42.805,6.029,13.2981,4.59985,2470.053,2020-9-25T11:50:08Z
2020-09-25T09:52:18Z,42.805,6.029,13.2980,4.59984,2470.077,2020-9-25T11:53:10Z
2020-09-25T09:55:20Z,42.805,6.029,13.2982,4.59982,2470.053,2020-9-25T11:56:12Z
2020-09-25T09:58:21Z,42.805,6.029,13.2982,4.59982,2470.077,2020-9-25T11:59:14Z
2020-09-25T10:01:23Z,42.805,6.029,13.2986,4.59984,2470.077,2020-9-25T12:02:16Z
2020-09-25T10:04:27Z,42.805,6.029,13.2982,4.59990,2470.053,2020-9-25T12:05:19Z
2020-09-25T10:07:30Z,42.805,6.029,13.2983,4.59985,2470.077,2020-9-25T12:08:22Z
2020-09-25T10:10:33Z,42.805,6.029,13.2980,4.59984,2470.063,2020-9-25T12:11:26Z
2020-09-25T10:13:37Z,42.805,6.029,13.2979,4.59984,2470.063,2020-9-25T12:14:29Z
2020-09-25T10:16:40Z,42.805,6.029,13.2983,4.59987,2470.087,2020-9-25T12:17:33Z
2020-09-25T10:19:44Z,42.805,6.029,13.2982,4.59983,2470.063,2020-9-25T12:20:37Z
2020-09-25T10:22:49Z,42.805,6.029,13.2981,4.59983,2470.087,2020-9-25T12:23:42Z
2020-09-25T10:25:52Z,42.805,6.029,13.2979,4.59983,2470.053,2020-9-25T12:26:45Z
2020-09-25T10:28:56Z,42.805,6.029,13.2983,4.59985,2470.04,2020-9-25T12:29:49Z
2020-09-25T10:32:00Z,42.805,6.029,13.2985,4.59986,2470.063,2020-9-25T12:32:53Z
2020-09-25T10:35:05Z,42.805,6.029,13.2986,4.59983,2470.063,2020-9-25T12:35:57Z
2020-09-25T10:38:08Z,42.805,6.029,13.2980,4.59983,2470.11,2020-9-25T12:39:01Z
2020-09-25T10:41:13Z,42.805,6.029,13.2983,4.59982,2470.063,2020-9-25T12:42:05Z
2020-09-25T10:44:15Z,42.805,6.029,13.2983,4.59983,2470.077,2020-9-25T12:45:08Z
2020-09-25T10:47:19Z,42.805,6.029,13.2981,4.59984,2470.087,2020-9-25T12:48:12Z
2020-09-25T10:50:22Z,42.805,6.029,13.2980,4.59986,2470.077,2020-9-25T12:51:14Z
2020-09-25T10:53:25Z,42.805,6.029,13.2981,4.59988,2470.087,2020-9-25T12:54:17Z
2020-09-25T10:56:28Z,42.805,6.029,13.2983,4.59985,2470.087,2020-9-25T12:57:21Z
2020-09-25T10:59:32Z,42.805,6.029,13.2983,4.59991,2470.04,2020-9-25T13:00:24Z
2020-09-25T11:02:35Z,42.805,6.029,13.2981,4.59983,2470.063,2020-9-25T13:03:28Z
2020-09-25T11:05:38Z,42.805,6.029,13.2979,4.59986,2470.063,2020-9-25T13:06:31Z
2020-09-25T11:08:42Z,42.805,6.029,13.2981,4.59988,2470.077,2020-9-25T13:09:34Z
2020-09-25T11:11:45Z,42.805,6.029,13.2986,4.59982,2470.087,2020-9-25T13:12:37Z
2020-09-25T11:14:48Z,42.805,6.029,13.2982,4.59983,2470.087,2020-9-25T13:15:41Z
2020-09-25T11:17:52Z,42.805,6.029,13.2980,4.59984,2470.04,2020-9-25T13:18:44Z
2020-09-25T11:20:53Z,42.805,6.029,13.2984,4.59985,2470.077,2020-9-25T13:21:46Z
2020-09-25T11:23:55Z,42.805,6.029,13.2983,4.59984,2470.063,2020-9-25T13:24:47Z
2020-09-25T11:26:58Z,42.805,6.029,13.2979,4.59983,2470.11,2020-9-25T13:27:50Z
2020-09-25T11:30:02Z,42.805,6.029,13.2984,4.59984,2470.063,2020-9-25T13:30:55Z
2020-09-25T11:33:06Z,42.805,6.029,13.2982,4.59982,2470.087,2020-9-25T13:33:58Z
2020-09-25T11:36:09Z,42.805,6.029,13.2982,4.59983,2470.087,2020-9-25T13:37:01Z
2020-09-25T11:39:13Z,42.805,6.029,13.2981,4.59984,2470.11,2020-9-25T13:40:06Z
2020-09-25T11:42:16Z,42.805,6.029,13.2982,4.59986,2470.1,2020-9-25T13:43:09Z
2020-09-25T11:45:20Z,42.805,6.029,13.2982,4.59983,2470.087,2020-9-25T13:46:12Z
2020-09-25T11:48:23Z,42.805,6.029,13.2985,4.59984,2470.133,2020-9-25T13:49:15Z
2020-09-25T11:51:26Z,42.805,6.029,13.2982,4.59984,2470.124,2020-9-25T13:52:19Z
2020-09-25T11:54:28Z,42.805,6.029,13.2986,4.59983,2470.133,2020-9-25T13:55:21Z
2020-09-25T11:57:30Z,42.805,6.029,13.2982,4.59983,2470.133,2020-9-25T13:58:23Z
2020-09-25T12:00:34Z,42.805,6.029,13.2983,4.59984,2470.1,2020-9-25T14:01:26Z
2020-09-25T12:03:38Z,42.805,6.029,13.2980,4.59986,2470.147,2020-9-25T14:04:30Z
2020-09-25T12:06:41Z,42.805,6.029,13.2984,4.59984,2470.124,2020-9-25T14:07:34Z
2020-09-25T12:09:46Z,42.805,6.029,13.2979,4.59985,2470.1,2020-9-25T14:10:38Z
2020-09-25T12:12:49Z,42.805,6.029,13.2982,4.59989,2470.087,2020-9-25T14:13:41Z
2020-09-25T12:15:54Z,42.805,6.029,13.2979,4.59985,2470.11,2020-9-25T14:16:46Z
2020-09-25T12:18:57Z,42.805,6.029,13.2984,4.59984,2470.11,2020-9-25T14:19:50Z
2020-09-25T12:22:01Z,42.805,6.029,13.2980,4.59984,2470.133,2020-9-25T14:22:54Z
2020-09-25T12:25:04Z,42.805,6.029,13.2984,4.59985,2470.1,2020-9-25T14:25:57Z
2020-09-25T12:28:08Z,42.805,6.029,13.2983,4.59984,2470.156,2020-9-25T14:29:01Z
2020-09-25T12:31:11Z,42.805,6.029,13.2982,4.59984,2470.11,2020-9-25T14:32:03Z
2020-09-25T12:34:12Z,42.805,6.029,13.2983,4.59984,2470.11,2020-9-25T14:35:04Z
2020-09-25T12:37:17Z,42.805,6.029,13.2979,4.59988,2470.11,2020-9-25T14:38:09Z
2020-09-25T12:40:21Z,42.805,6.029,13.2979,4.59983,2470.156,2020-9-25T14:41:14Z
2020-09-25T12:43:26Z,42.805,6.029,13.2983,4.59984,2470.156,2020-9-25T14:44:18Z
2020-09-25T12:46:31Z,42.805,6.029,13.2983,4.59984,2470.156,2020-9-25T14:47:23Z
2020-09-25T12:49:34Z,42.805,6.029,13.2983,4.59984,2470.11,2020-9-25T14:50:27Z
2020-09-25T12:52:37Z,42.805,6.029,13.2981,4.59983,2470.147,2020-9-25T14:53:29Z
2020-09-25T12:55:40Z,42.805,6.029,13.2982,4.59983,2470.133,2020-9-25T14:56:33Z
2020-09-25T12:58:44Z,42.805,6.029,13.2982,4.59987,2470.18,2020-9-25T14:59:36Z
2020-09-25T13:01:48Z,42.805,6.029,13.2982,4.59987,2470.147,2020-9-25T15:02:40Z
2020-09-25T13:04:51Z,42.805,6.029,13.2979,4.59983,2470.156,2020-9-25T15:05:44Z
2020-09-25T13:07:54Z,42.805,6.029,13.2979,4.59983,2470.11,2020-9-25T15:08:46Z
2020-09-25T13:10:56Z,42.805,6.029,13.2986,4.59984,2470.11,2020-9-25T15:11:49Z
2020-09-25T13:14:00Z,42.805,6.029,13.2983,4.59983,2470.124,2020-9-25T15:14:53Z
2020-09-25T13:17:04Z,42.805,6.029,13.2979,4.59987,2470.147,2020-9-25T15:17:56Z
2020-09-25T13:20:08Z,42.805,6.029,13.2979,4.59984,2470.18,2020-9-25T15:21:00Z
2020-09-25T13:23:11Z,42.805,6.029,13.2986,4.59986,2470.133,2020-9-25T15:24:04Z
2020-09-25T13:26:15Z,42.805,6.029,13.2987,4.59985,2470.147,2020-9-25T15:27:07Z
2020-09-25T13:29:18Z,42.805,6.029,13.2980,4.59982,2470.147,2020-9-25T15:30:11Z
2020-09-25T13:32:22Z,42.805,6.029,13.2983,4.59983,2470.18,2020-9-25T15:33:14Z
2020-09-25T13:35:23Z,42.805,6.029,13.2985,4.59983,2470.156,2020-9-25T15:36:15Z
2020-09-25T13:38:26Z,42.805,6.029,13.2982,4.59984,2470.171,2020-9-25T15:39:19Z
2020-09-25T13:41:29Z,42.805,6.029,13.2983,4.59983,2470.171,2020-9-25T15:42:22Z
2020-09-25T13:44:34Z,42.805,6.029,13.2979,4.59983,2470.147,2020-9-25T15:45:26Z
2020-09-25T13:47:36Z,42.805,6.029,13.2982,4.59984,2470.147,2020-9-25T15:48:29Z
2020-09-25T13:50:41Z,42.805,6.029,13.2982,4.59984,2470.147,2020-9-25T15:51:33Z
2020-09-25T13:53:44Z,42.805,6.029,13.2983,4.59986,2470.171,2020-9-25T15:54:36Z
2020-09-25T13:56:47Z,42.805,6.029,13.2983,4.59984,2470.156,2020-9-25T15:57:40Z
2020-09-25T13:59:50Z,42.805,6.029,13.2981,4.59983,2470.194,2020-9-25T16:00:43Z
2020-09-25T14:02:54Z,42.805,6.029,13.2982,4.59983,2470.156,2020-9-25T16:03:46Z
2020-09-25T14:05:56Z,42.805,6.029,13.2983,4.59985,2470.156,2020-9-25T16:06:49Z
2020-09-25T14:08:57Z,42.805,6.029,13.2981,4.59984,2470.156,2020-9-25T16:09:50Z
2020-09-25T14:12:00Z,42.805,6.029,13.2980,4.59983,2470.156,2020-9-25T16:12:53Z
2020-09-25T14:15:02Z,42.805,6.029,13.2982,4.59985,2470.133,2020-9-25T16:15:54Z
2020-09-25T14:18:05Z,42.805,6.029,13.2982,4.59984,2470.194,2020-9-25T16:18:57Z
2020-09-25T14:21:12Z,42.805,6.029,13.2983,4.59986,2470.133,2020-9-25T16:22:01Z
2020-09-25T14:24:10Z,42.805,6.029,13.2982,4.59983,2470.156,2020-9-25T16:25:03Z
2020-09-25T14:27:13Z,42.805,6.029,13.2982,4.59983,2470.156,2020-9-25T16:28:05Z
2020-09-25T14:30:16Z,42.805,6.029,13.2981,4.59984,2470.147,2020-9-25T16:31:08Z
2020-09-25T14:33:19Z,42.805,6.029,13.2981,4.59984,2470.156,2020-9-25T16:34:11Z
2020-09-25T14:36:22Z,42.805,6.029,13.2982,4.59984,2470.171,2020-9-25T16:37:14Z
2020-09-25T14:39:24Z,42.805,6.029,13.2981,4.59983,2470.133,2020-9-25T16:40:17Z
2020-09-25T14:42:28Z,42.805,6.029,13.2977,4.59984,2470.18,2020-9-25T16:43:21Z
2020-09-25T14:45:32Z,42.805,6.029,13.2982,4.59985,2470.18,2020-9-25T16:46:24Z
2020-09-25T14:48:35Z,42.805,6.029,13.2982,4.59985,2470.156,2020-9-25T16:49:28Z
2020-09-25T14:51:39Z,42.805,6.029,13.2982,4.59983,2470.133,2020-9-25T16:52:31Z
2020-09-25T14:54:42Z,42.805,6.029,13.2979,4.59985,2470.133,2020-9-25T16:55:35Z
2020-09-25T14:57:45Z,42.805,6.029,13.2984,4.59984,2470.133,2020-9-25T16:58:37Z
2020-09-25T15:00:49Z,42.805,6.029,13.2979,4.59984,2470.147,2020-9-25T17:01:41Z
2020-09-25T15:03:53Z,42.805,6.029,13.2980,4.59983,2470.133,2020-9-25T17:04:46Z
2020-09-25T15:06:57Z,42.805,6.029,13.2982,4.59983,2470.143,2020-9-25T17:07:49Z
2020-09-25T15:10:01Z,42.805,6.029,13.2982,4.59983,2470.171,2020-9-25T17:10:53Z
2020-09-25T15:13:04Z,42.805,6.029,13.2982,4.59983,2470.171,2020-9-25T17:13:56Z
2020-09-25T15:16:07Z,42.805,6.029,13.2982,4.59984,2470.147,2020-9-25T17:17:00Z